Location: Cheyres
(46.8153°N, 6.7877°E)
Time: 04:17:28
(UTC+00:00)

OE (NEXTSAT) - Pass Details

Date: 11 May 2021
Orbit: 425 x 432 km, 46.0° (Epoch: 18 June)

Event Time Altitude Azimuth Distance (km) Brightness Sun altitude
Rises 19:56:18 0° 276° (W) 2,395 9.1 -9.4°
Reaches altitude 10° 19:58:25 10° 273° (W) 1,529 8.0 -9.7°
Maximum altitude 20:01:51 66° 192° (SSW) 475 4.4 -10.1°
Enters shadow 20:04:39 15° 111° (ESE) 1,278 6.1 -10.5°
